Вернуться в каталог

SL-12 DEB

АктивенHEO
NORAD 41560·DEBRIS·🇷🇺 Russia

Запущен Dec 25, 2008 с Baikonur Cosmodrome

Loading…

Ближайшие Пролёты (ближайшие 24 часа)

TLE

СвежийSource: Space-Track

Эпоха: Sep 14, 2026, 01:06 UTC

1 41560U 08067J   26257.04588923 -.00000118  00000-0 -82960-3 0  9998
2 41560  65.2657 151.0741 5643231 232.3118  61.9783  4.22995608161447

Отслеживайте SL-12 DEB в реальном времени с AllMySat

Download on the App Store